Regional Weather Roundup
Issued by NWS

Home | Current Version | Previous Version | Text Only | Print | Product List | Glossary Off
Versions: 1 2 3 4 5 6 7 8 9 10 11 12 13 14 15 16 17 18 19 20 21 22 23 24 25 26 27 28 29 30 31 32 33 34 35 36 37 38 39 40 41 42 43 44 45 46 47 48 49

000
ASUS45 KCYS 160010
RWRWY

WYOMING REGIONAL WEATHER ROUNDUP
NATIONAL WEATHER SERVICE CHEYENNE WY
600 PM MDT MON SEP 15 2014

NOTE:  "FAIR" INDICATES FEW OR NO CLOUDS BELOW 12,000 FEET
WITH NO SIGNIFICANT WEATHER AND/OR OBSTRUCTIONS TO VISIBILITY.

WYZ001-160100-
YELLOWSTONE NATIONAL PARK

CITY           SKY/WX    TMP DP  RH WIND       PRES   REMARKS
LK YELLOWSTONE   N/A     66  27  23 W9G16     30.32R
6HR MIN TEMP:  54; 6HR MAX TEMP:  69;

W YELLOWSTONE  NOT AVBL

$$
WYZ002>013-054>058-071-098>099-160100-
NORTHERN WYOMING

CITY           SKY/WX    TMP DP  RH WIND       PRES   REMARKS
JACKSON        MOSUNNY   75  27  16 W14       30.20R
CODY           SUNNY     70  45  40 N6        30.13R
GREYBULL       SUNNY     78  38  23 NW9       30.04F
6HR MIN TEMP:  64; 6HR MAX TEMP:  79;

WORLAND        SUNNY     78  44  29 N6        30.04F
6HR MIN TEMP:  68; 6HR MAX TEMP:  80;

SHERIDAN       SUNNY     74  47  38 N6        30.08S
6HR MIN TEMP:  65; 6HR MAX TEMP:  76;

BUFFALO        SUNNY     72  42  34 NW7       30.13S
6HR MIN TEMP:  62; 6HR MAX TEMP:  75;

GILLETTE       SUNNY     71  44  37 SE14      30.10F
6HR MIN TEMP:  64; 6HR MAX TEMP:  73;

HULETT         FAIR      70  39  32 MISG      30.15
NEWCASTLE      FAIR      68  37  32 MISG      30.16

$$
WYZ014>020-022>026-101>103-160100-
CENTRAL WYOMING

CITY           SKY/WX    TMP DP  RH WIND       PRES   REMARKS
BIG PINEY      MOSUNNY   76  26  15 NW18G28   30.25S
6HR MIN TEMP:  63; 6HR MAX TEMP:  78;

PINEDALE       PTCLDY    73  27  17 NW16      30.25S
DUBOIS         FAIR      72  28  20 N7        30.23R
LANDER         SUNNY     74  40  29 CALM      30.10F
6HR MIN TEMP:  61; 6HR MAX TEMP:  77;

RIVERTON       SUNNY     76  40  27 SE3       30.11F
6HR MIN TEMP:  63; 6HR MAX TEMP:  76;

CASPER         PTSUNNY   81  29  15 W3        30.11F
6HR MIN TEMP:  65; 6HR MAX TEMP:  85; 6HR PCP: TRACE;

DOUGLAS        SUNNY     73  43  33 SE17      30.14F
6HR MIN TEMP:  66; 6HR MAX TEMP:  77;


$$
WYZ021-027>030-104>119-160100-
SOUTHERN WYOMING

CITY           SKY/WX    TMP DP  RH WIND       PRES   REMARKS
EVANSTON       SUNNY     76  26  15 W15G26    30.28R
6HR MIN TEMP:  70; 6HR MAX TEMP:  79;

KEMMERER       CLEAR     73  28  19 W17G24    30.28S
FORT BRIDGER   FAIR      79  28  15 NW14G20   30.29S
ROCK SPRINGS   MOSUNNY   75  31  19 SW10      30.23S
6HR MIN TEMP:  68; 6HR MAX TEMP:  80;

DIXON          FAIR      73  40  30 W6        30.26S
RAWLINS        LGT RAIN  74  31  20 W8        30.24S
6HR MIN TEMP:  67; 6HR MAX TEMP:  79; 6HR PCP: TRACE;

SARATOGA       FAIR      73  32  21 SW14      30.28S
LARAMIE        PTSUNNY   65  43  44 SE15      30.30R
6HR MIN TEMP:  65; 6HR MAX TEMP:  75;

CHEYENNE       SUNNY     65  40  39 S14       30.27S
6HR MIN TEMP:  64; 6HR MAX TEMP:  70;

TORRINGTON     SUNNY     71  46  40 SE17G24   30.14S
6HR MIN TEMP:  61; 6HR MAX TEMP:  74;

PINE BLUFFS    FAIR      66  43  42 S14G20    30.24F

$$


USA.gov is the U.S. government's official web portal to all federal, state and local government web resources and services.